Regional Weather Roundup
Issued by NWS

Home | Current Version | Previous Version | Text Only | Print | Product List | Glossary Off
Versions: 1 2 3 4 5 6 7 8 9 10 11 12 13 14 15 16 17 18 19 20 21 22 23 24 25 26 27

000
ASUS45 KSLC 221810
RWRUT

UTAH REGIONAL WEATHER ROUNDUP
NATIONAL WEATHER SERVICE SALT LAKE CITY UT
1200 PM MDT TUE APR 22 2014

UTZ001>011-023>025-221900-

NORTHERN UTAH

CITY           SKY/WX    TMP DP  RH WIND       PRES   REMARKS
HILL AFB       CLOUDY    67  29  23 S18G33    29.69F
LOGAN          CLOUDY    68  33  27 S29G37    29.67F
OGDEN          CLOUDY    70  29  21 S23G31    29.67F
PROVO AIRPORT  CLOUDY    72  32  23 S28G33    29.74F
SALT LAKE CITY CLOUDY    71  30  21 S26G32    29.67F
VERNAL         CLOUDY    65  34  31 S6        29.83F
WENDOVER       PTSUNNY   68  30  24 SE7       29.56F
HEBER CITY     CLOUDY    68  30  24 SW9G18    29.78F
WEST JORDAN    SUNNY     68  39  34 SE18G24   29.72F

$$

UTZ012>022-026-027-221900-

SOUTHERN UTAH

CITY           SKY/WX    TMP DP  RH WIND       PRES   REMARKS
BRYCE CANYON   PTSUNNY   57  29  34 SW24G33   30.01F
CEDAR CITY     PTSUNNY   68  30  24 S28G44    29.83F
MILFORD        PTSUNNY   73  31  21 S30G51    29.76F HAZE
MOAB/CYNLANDS  CLOUDY    75  28  17 SW24G31   29.83F
PRICE          CLOUDY    64  30  27 SE12      29.88F
ST GEORGE      CLOUDY    79  34  19 S26       29.78F
KANAB            N/A     72  32  23 S23G29    29.93F

$$

REGIONAL REPORTS     COLORADO/ARIZONA

CITY           SKY/WX    TMP DP  RH WIND       PRES   REMARKS
CRAIG, CO      PTSUNNY   69  34  27 SW29G38   29.91F
GRAND JUNCTION MOSUNNY   75  31  19 S20G31    29.88F
RIFLE          PTSUNNY   62  36  37 NW6       29.93F
MONTROSE       LGT RAIN  71  33  24 SW18G29   29.96F
CORTEZ         MOSUNNY   73  30  20 SW15G28   30.03F
PAGE, AZ       CLOUDY    76  31  19 VRB5      29.88F
GRAND CANYON   PTSUNNY   68  30  24 SW23G36   30.04F
KINGMAN        PTSUNNY   81  29  15 S25G36    29.87F
FLAGSTAFF      PTSUNNY   65  29  25 S21G35    30.09F

$$

REGIONAL REPORTS    NEVADA/IDAHO/WYOMING

CITY           SKY/WX    TMP DP  RH WIND       PRES   REMARKS
LAS VEGAS, NV  PTSUNNY   80  12   7 S26G36    29.71F
ELY            MOSUNNY   66  14  13 S32G48    29.68F
ELKO           CLOUDY    55  30  38 W26G39    29.70R
POCATELLO, ID  PTSUNNY   70  31  23 S22G29    29.60F
BURLEY         MOSUNNY   61  34  36 W16G29    29.64F
EVANSTON, WY   NOT AVBL
ROCK SPRINGS   CLOUDY    66  29  24 S22G35    29.83F

$$



USA.gov is the U.S. government's official web portal to all federal, state and local government web resources and services.